contact:dominique.lefevre@mio.osupytheas.fr, maurice.libes@osupytheas.fr, didier.mallarino@osupytheas.fr
Project:EMSO http://www.emso-fr.org/EMSO-France
Depth: 2436.0 m
Title:EMSO Ligure Ouest : Data MII capteur MICROCAT
DateTime_Computer,Latitude,Longitude,Temperature,Conductivity,Pressure,DateTime_Instrument
DateTime_Computer,Latitude,Longitude,degC,S m-1,dbar,DateTime_Instrument
2020-12-15T00:02:50Z,42.805,6.029,13.3033,4.60070,2470.203,2020-12-15T02:03:49Z
2020-12-15T00:05:53Z,42.805,6.029,13.3027,4.60052,2470.171,2020-12-15T02:06:52Z
2020-12-15T00:08:56Z,42.805,6.029,13.3032,4.60024,2470.171,2020-12-15T02:09:55Z
2020-12-15T00:11:59Z,42.805,6.029,13.3017,4.60040,2470.18,2020-12-15T02:12:58Z
2020-12-15T00:15:03Z,42.805,6.029,13.3022,4.60055,2470.156,2020-12-15T02:16:01Z
2020-12-15T00:18:06Z,42.805,6.029,13.3015,4.60038,2470.133,2020-12-15T02:19:05Z
2020-12-15T00:21:09Z,42.805,6.029,13.3004,4.60047,2470.171,2020-12-15T02:22:08Z
2020-12-15T00:24:12Z,42.805,6.029,13.3005,4.60046,2470.194,2020-12-15T02:25:11Z
2020-12-15T00:27:15Z,42.805,6.029,13.3029,4.60041,2470.156,2020-12-15T02:28:14Z
2020-12-15T00:30:18Z,42.805,6.029,13.3000,4.60048,2470.133,2020-12-15T02:31:17Z
2020-12-15T00:33:21Z,42.805,6.029,13.3012,4.60034,2470.147,2020-12-15T02:34:20Z
2020-12-15T00:36:24Z,42.805,6.029,13.3007,4.60066,2470.171,2020-12-15T02:37:23Z
2020-12-15T00:39:28Z,42.805,6.029,13.3018,4.60057,2470.133,2020-12-15T02:40:26Z
2020-12-15T00:42:31Z,42.805,6.029,13.3018,4.60030,2470.133,2020-12-15T02:43:30Z
2020-12-15T00:45:34Z,42.805,6.029,13.2990,4.60045,2470.147,2020-12-15T02:46:33Z
2020-12-15T00:48:37Z,42.805,6.029,13.2998,4.60047,2470.147,2020-12-15T02:49:36Z
2020-12-15T00:51:40Z,42.805,6.029,13.3013,4.60037,2470.194,2020-12-15T02:52:39Z
2020-12-15T00:54:43Z,42.805,6.029,13.3023,4.60049,2470.124,2020-12-15T02:55:42Z
2020-12-15T00:57:46Z,42.805,6.029,13.3020,4.60031,2470.156,2020-12-15T02:58:45Z
2020-12-15T01:00:49Z,42.805,6.029,13.3014,4.60036,2470.11,2020-12-15T03:01:48Z
2020-12-15T01:03:53Z,42.805,6.029,13.3024,4.60036,2470.133,2020-12-15T03:04:51Z
2020-12-15T01:06:56Z,42.805,6.029,13.3009,4.60062,2470.11,2020-12-15T03:07:55Z
2020-12-15T01:09:59Z,42.805,6.029,13.3029,4.60049,2470.133,2020-12-15T03:10:58Z
2020-12-15T01:13:02Z,42.805,6.029,13.2986,4.60022,2470.133,2020-12-15T03:14:01Z
2020-12-15T01:16:05Z,42.805,6.029,13.3004,4.60039,2470.147,2020-12-15T03:17:04Z
2020-12-15T01:19:08Z,42.805,6.029,13.2986,4.60014,2470.147,2020-12-15T03:20:07Z
2020-12-15T01:22:11Z,42.805,6.029,13.3001,4.60022,2470.11,2020-12-15T03:23:10Z
2020-12-15T01:25:14Z,42.805,6.029,13.2996,4.60012,2470.133,2020-12-15T03:26:13Z
2020-12-15T01:28:18Z,42.805,6.029,13.3014,4.59999,2470.124,2020-12-15T03:29:16Z
2020-12-15T01:31:21Z,42.805,6.029,13.2989,4.60016,2470.147,2020-12-15T03:32:20Z
2020-12-15T01:34:24Z,42.805,6.029,13.3000,4.60036,2470.171,2020-12-15T03:35:23Z
2020-12-15T01:37:27Z,42.805,6.029,13.3025,4.60014,2470.11,2020-12-15T03:38:26Z
2020-12-15T01:40:30Z,42.805,6.029,13.3010,4.60003,2470.147,2020-12-15T03:41:29Z
2020-12-15T01:43:33Z,42.805,6.029,13.2996,4.60019,2470.133,2020-12-15T03:44:32Z
2020-12-15T01:46:36Z,42.805,6.029,13.3000,4.60031,2470.133,2020-12-15T03:47:35Z
2020-12-15T01:49:39Z,42.805,6.029,13.3000,4.60042,2470.11,2020-12-15T03:50:38Z
2020-12-15T01:52:43Z,42.805,6.029,13.3003,4.60050,2470.133,2020-12-15T03:53:41Z
2020-12-15T01:55:46Z,42.805,6.029,13.3016,4.60054,2470.147,2020-12-15T03:56:45Z
2020-12-15T01:58:49Z,42.805,6.029,13.2999,4.60031,2470.133,2020-12-15T03:59:48Z
2020-12-15T02:01:52Z,42.805,6.029,13.2994,4.60036,2470.156,2020-12-15T04:02:51Z
2020-12-15T02:04:55Z,42.805,6.029,13.2995,4.60051,2470.133,2020-12-15T04:05:54Z
2020-12-15T02:07:58Z,42.805,6.029,13.2996,4.60015,2470.133,2020-12-15T04:08:57Z
2020-12-15T02:11:01Z,42.805,6.029,13.3005,4.60044,2470.147,2020-12-15T04:12:00Z
2020-12-15T02:14:04Z,42.805,6.029,13.3011,4.60039,2470.133,2020-12-15T04:15:03Z
2020-12-15T02:17:08Z,42.805,6.029,13.2998,4.60047,2470.156,2020-12-15T04:18:06Z
2020-12-15T02:20:11Z,42.805,6.029,13.3017,4.60040,2470.147,2020-12-15T04:21:10Z
2020-12-15T02:23:14Z,42.805,6.029,13.3031,4.60040,2470.156,2020-12-15T04:24:13Z
2020-12-15T02:26:17Z,42.805,6.029,13.3006,4.60043,2470.133,2020-12-15T04:27:16Z
2020-12-15T02:29:20Z,42.805,6.029,13.3003,4.60019,2470.156,2020-12-15T04:30:19Z
2020-12-15T02:32:23Z,42.805,6.029,13.3009,4.60039,2470.156,2020-12-15T04:33:22Z
2020-12-15T02:35:26Z,42.805,6.029,13.3019,4.60026,2470.171,2020-12-15T04:36:25Z
2020-12-15T02:38:29Z,42.805,6.029,13.3012,4.60044,2470.133,2020-12-15T04:39:28Z
2020-12-15T02:41:33Z,42.805,6.029,13.2998,4.60052,2470.156,2020-12-15T04:42:31Z
2020-12-15T02:44:36Z,42.805,6.029,13.3015,4.60036,2470.156,2020-12-15T04:45:35Z
2020-12-15T02:47:39Z,42.805,6.029,13.3010,4.60051,2470.156,2020-12-15T04:48:38Z
2020-12-15T02:50:42Z,42.805,6.029,13.3014,4.60035,2470.18,2020-12-15T04:51:41Z
2020-12-15T02:53:45Z,42.805,6.029,13.2999,4.60036,2470.133,2020-12-15T04:54:44Z
2020-12-15T02:56:48Z,42.805,6.029,13.3009,4.60041,2470.171,2020-12-15T04:57:47Z
2020-12-15T02:59:51Z,42.805,6.029,13.3007,4.60035,2470.171,2020-12-15T05:00:50Z
2020-12-15T03:02:54Z,42.805,6.029,13.3007,4.60035,2470.194,2020-12-15T05:03:53Z
2020-12-15T03:05:57Z,42.805,6.029,13.3006,4.60045,2470.133,2020-12-15T05:06:56Z
2020-12-15T03:09:01Z,42.805,6.029,13.3004,4.60037,2470.171,2020-12-15T05:10:00Z
2020-12-15T03:12:04Z,42.805,6.029,13.3008,4.60063,2470.171,2020-12-15T05:13:03Z
2020-12-15T03:15:07Z,42.805,6.029,13.3011,4.60035,2470.18,2020-12-15T05:16:06Z
2020-12-15T03:18:10Z,42.805,6.029,13.2998,4.60023,2470.217,2020-12-15T05:19:09Z
2020-12-15T03:21:13Z,42.805,6.029,13.3026,4.60038,2470.194,2020-12-15T05:22:12Z
2020-12-15T03:24:16Z,42.805,6.029,13.3010,4.60046,2470.18,2020-12-15T05:25:15Z
2020-12-15T03:27:19Z,42.805,6.029,13.3009,4.60029,2470.194,2020-12-15T05:28:18Z
2020-12-15T03:30:22Z,42.805,6.029,13.3004,4.60036,2470.171,2020-12-15T05:31:21Z
2020-12-15T03:33:26Z,42.805,6.029,13.2996,4.60035,2470.217,2020-12-15T05:34:24Z
2020-12-15T03:36:29Z,42.805,6.029,13.3009,4.60019,2470.227,2020-12-15T05:37:28Z
2020-12-15T03:39:32Z,42.805,6.029,13.3006,4.60011,2470.203,2020-12-15T05:40:31Z
2020-12-15T03:42:35Z,42.805,6.029,13.3005,4.60027,2470.203,2020-12-15T05:43:34Z
2020-12-15T03:45:38Z,42.805,6.029,13.2995,4.60032,2470.227,2020-12-15T05:46:37Z
2020-12-15T03:48:41Z,42.805,6.029,13.3006,4.60034,2470.24,2020-12-15T05:49:40Z
2020-12-15T03:51:44Z,42.805,6.029,13.2996,4.60039,2470.203,2020-12-15T05:52:43Z
2020-12-15T03:54:47Z,42.805,6.029,13.2998,4.60032,2470.227,2020-12-15T05:55:46Z
2020-12-15T03:57:51Z,42.805,6.029,13.3001,4.60034,2470.24,2020-12-15T05:58:50Z
2020-12-15T04:00:54Z,42.805,6.029,13.3001,4.60032,2470.227,2020-12-15T06:01:53Z
2020-12-15T04:03:57Z,42.805,6.029,13.2999,4.60036,2470.25,2020-12-15T06:04:56Z
2020-12-15T04:07:00Z,42.805,6.029,13.3015,4.60041,2470.264,2020-12-15T06:07:59Z
2020-12-15T04:10:03Z,42.805,6.029,13.2998,4.60044,2470.227,2020-12-15T06:11:02Z
2020-12-15T04:13:06Z,42.805,6.029,13.3003,4.60038,2470.25,2020-12-15T06:14:05Z
2020-12-15T04:16:09Z,42.805,6.029,13.2987,4.60020,2470.25,2020-12-15T06:17:08Z
2020-12-15T04:19:12Z,42.805,6.029,13.2988,4.60049,2470.264,2020-12-15T06:20:11Z
2020-12-15T04:22:16Z,42.805,6.029,13.2990,4.60026,2470.24,2020-12-15T06:23:14Z
2020-12-15T04:25:19Z,42.805,6.029,13.2999,4.60033,2470.264,2020-12-15T06:26:18Z
2020-12-15T04:28:22Z,42.805,6.029,13.3000,4.60038,2470.227,2020-12-15T06:29:21Z
2020-12-15T04:31:25Z,42.805,6.029,13.3012,4.60047,2470.264,2020-12-15T06:32:24Z
2020-12-15T04:34:28Z,42.805,6.029,13.3019,4.60044,2470.31,2020-12-15T06:35:27Z
2020-12-15T04:37:31Z,42.805,6.029,13.2992,4.60042,2470.297,2020-12-15T06:38:30Z
2020-12-15T04:40:34Z,42.805,6.029,13.3014,4.60003,2470.273,2020-12-15T06:41:33Z
2020-12-15T04:43:37Z,42.805,6.029,13.3017,4.60057,2470.273,2020-12-15T06:44:36Z
2020-12-15T04:46:41Z,42.805,6.029,13.3005,4.60029,2470.273,2020-12-15T06:47:39Z
2020-12-15T04:49:44Z,42.805,6.029,13.3000,4.60020,2470.31,2020-12-15T06:50:43Z
2020-12-15T04:52:47Z,42.805,6.029,13.3014,4.60046,2470.31,2020-12-15T06:53:46Z
2020-12-15T04:55:50Z,42.805,6.029,13.2991,4.60053,2470.32,2020-12-15T06:56:49Z
2020-12-15T04:58:53Z,42.805,6.029,13.3021,4.60042,2470.334,2020-12-15T06:59:52Z
2020-12-15T05:01:56Z,42.805,6.029,13.3014,4.60046,2470.334,2020-12-15T07:02:55Z
2020-12-15T05:04:59Z,42.805,6.029,13.3024,4.60009,2470.297,2020-12-15T07:05:58Z
2020-12-15T05:08:02Z,42.805,6.029,13.3004,4.60021,2470.334,2020-12-15T07:09:01Z
2020-12-15T05:11:06Z,42.805,6.029,13.3003,4.60042,2470.297,2020-12-15T07:12:04Z
2020-12-15T05:14:09Z,42.805,6.029,13.3030,4.60046,2470.31,2020-12-15T07:15:08Z
2020-12-15T05:17:12Z,42.805,6.029,13.3024,4.60055,2470.343,2020-12-15T07:18:11Z
2020-12-15T05:20:15Z,42.805,6.029,13.3025,4.60033,2470.32,2020-12-15T07:21:14Z
2020-12-15T05:23:18Z,42.805,6.029,13.3049,4.60030,2470.32,2020-12-15T07:24:17Z
2020-12-15T05:29:24Z,42.805,6.029,13.2998,4.60059,2470.366,2020-12-15T07:30:23Z
2020-12-15T05:32:27Z,42.805,6.029,13.3015,4.60057,2470.343,2020-12-15T07:33:26Z
2020-12-15T05:35:30Z,42.805,6.029,13.3011,4.60037,2470.366,2020-12-15T07:36:29Z
2020-12-15T05:38:33Z,42.805,6.029,13.3001,4.60042,2470.38,2020-12-15T07:39:32Z
2020-12-15T05:41:37Z,42.805,6.029,13.3015,4.60057,2470.38,2020-12-15T07:42:35Z
2020-12-15T05:44:40Z,42.805,6.029,13.3023,4.60063,2470.343,2020-12-15T07:45:39Z
2020-12-15T05:47:43Z,42.805,6.029,13.3012,4.60052,2470.366,2020-12-15T07:48:42Z
2020-12-15T05:50:46Z,42.805,6.029,13.2999,4.60038,2470.366,2020-12-15T07:51:45Z
2020-12-15T05:53:49Z,42.805,6.029,13.3016,4.60043,2470.413,2020-12-15T07:54:48Z
2020-12-15T05:56:52Z,42.805,6.029,13.3013,4.60029,2470.39,2020-12-15T07:57:51Z
2020-12-15T05:59:55Z,42.805,6.029,13.3021,4.60025,2470.404,2020-12-15T08:00:54Z
2020-12-15T06:02:58Z,42.805,6.029,13.3004,4.60040,2470.404,2020-12-15T08:03:57Z
2020-12-15T06:06:02Z,42.805,6.029,13.3012,4.60047,2470.413,2020-12-15T08:07:00Z
2020-12-15T06:09:05Z,42.805,6.029,13.3004,4.60042,2470.39,2020-12-15T08:10:04Z
2020-12-15T06:12:08Z,42.805,6.029,13.2985,4.60004,2470.39,2020-12-15T08:13:07Z
2020-12-15T06:15:11Z,42.805,6.029,13.2986,4.60003,2470.404,2020-12-15T08:16:10Z
2020-12-15T06:18:14Z,42.805,6.029,13.2982,4.60014,2470.437,2020-12-15T08:19:13Z
2020-12-15T06:21:17Z,42.805,6.029,13.2986,4.60013,2470.413,2020-12-15T08:22:16Z
2020-12-15T06:24:20Z,42.805,6.029,13.2986,4.60007,2470.437,2020-12-15T08:25:19Z
2020-12-15T06:27:23Z,42.805,6.029,13.2982,4.60019,2470.427,2020-12-15T08:28:22Z
2020-12-15T06:30:27Z,42.805,6.029,13.2983,4.60008,2470.427,2020-12-15T08:31:25Z
2020-12-15T06:33:30Z,42.805,6.029,13.2993,4.60006,2470.413,2020-12-15T08:34:29Z
2020-12-15T06:36:33Z,42.805,6.029,13.2983,4.60021,2470.413,2020-12-15T08:37:32Z
2020-12-15T06:39:36Z,42.805,6.029,13.2991,4.60016,2470.427,2020-12-15T08:40:35Z
2020-12-15T06:42:39Z,42.805,6.029,13.2992,4.60016,2470.474,2020-12-15T08:43:38Z
2020-12-15T06:45:42Z,42.805,6.029,13.2986,4.60021,2470.413,2020-12-15T08:46:41Z
2020-12-15T06:48:45Z,42.805,6.029,13.2996,4.60015,2470.437,2020-12-15T08:49:44Z
2020-12-15T06:51:48Z,42.805,6.029,13.2988,4.60010,2470.437,2020-12-15T08:52:47Z
2020-12-15T06:54:52Z,42.805,6.029,13.2986,4.60021,2470.45,2020-12-15T08:55:50Z
2020-12-15T06:57:55Z,42.805,6.029,13.3000,4.60052,2470.437,2020-12-15T08:58:54Z
2020-12-15T07:00:58Z,42.805,6.029,13.2995,4.60053,2470.45,2020-12-15T09:01:57Z
2020-12-15T07:04:01Z,42.805,6.029,13.2986,4.60027,2470.437,2020-12-15T09:05:00Z
2020-12-15T07:07:04Z,42.805,6.029,13.2985,4.60014,2470.437,2020-12-15T09:08:03Z
2020-12-15T07:10:07Z,42.805,6.029,13.2988,4.60015,2470.427,2020-12-15T09:11:06Z
2020-12-15T07:13:10Z,42.805,6.029,13.2990,4.60019,2470.46,2020-12-15T09:14:09Z
2020-12-15T07:16:13Z,42.805,6.029,13.2988,4.60006,2470.437,2020-12-15T09:17:12Z
2020-12-15T07:19:16Z,42.805,6.029,13.2983,4.59998,2470.427,2020-12-15T09:20:15Z
2020-12-15T07:22:20Z,42.805,6.029,13.2998,4.60026,2470.446,2020-12-15T09:23:18Z
2020-12-15T07:25:23Z,42.805,6.029,13.2985,4.60019,2470.437,2020-12-15T09:26:22Z
2020-12-15T07:28:26Z,42.805,6.029,13.2991,4.60014,2470.437,2020-12-15T09:29:25Z
2020-12-15T07:31:29Z,42.805,6.029,13.2984,4.60008,2470.437,2020-12-15T09:32:28Z
2020-12-15T07:34:32Z,42.805,6.029,13.2987,4.60005,2470.413,2020-12-15T09:35:31Z
2020-12-15T07:37:35Z,42.805,6.029,13.2985,4.60002,2470.46,2020-12-15T09:38:34Z
2020-12-15T07:40:38Z,42.805,6.029,13.2980,4.60013,2470.46,2020-12-15T09:41:37Z
2020-12-15T07:43:41Z,42.805,6.029,13.2985,4.60028,2470.427,2020-12-15T09:44:40Z
2020-12-15T07:46:45Z,42.805,6.029,13.3004,4.60009,2470.497,2020-12-15T09:47:43Z
2020-12-15T07:49:48Z,42.805,6.029,13.2991,4.60026,2470.45,2020-12-15T09:50:47Z
2020-12-15T07:52:51Z,42.805,6.029,13.2986,4.60009,2470.45,2020-12-15T09:53:50Z
2020-12-15T07:55:54Z,42.805,6.029,13.2991,4.60008,2470.474,2020-12-15T09:56:53Z
2020-12-15T07:58:57Z,42.805,6.029,13.2983,4.60006,2470.474,2020-12-15T09:59:56Z
2020-12-15T08:02:00Z,42.805,6.029,13.2989,4.60016,2470.474,2020-12-15T10:02:59Z
2020-12-15T08:05:03Z,42.805,6.029,13.2989,4.60004,2470.46,2020-12-15T10:06:02Z
2020-12-15T08:08:06Z,42.805,6.029,13.2982,4.60005,2470.46,2020-12-15T10:09:05Z
2020-12-15T08:11:10Z,42.805,6.029,13.2992,4.60008,2470.474,2020-12-15T10:12:08Z
2020-12-15T08:14:13Z,42.805,6.029,13.2983,4.60005,2470.45,2020-12-15T10:15:12Z
2020-12-15T08:17:16Z,42.805,6.029,13.2992,4.60016,2470.437,2020-12-15T10:18:15Z
2020-12-15T08:20:19Z,42.805,6.029,13.2983,4.60016,2470.46,2020-12-15T10:21:18Z
2020-12-15T08:23:22Z,42.805,6.029,13.2986,4.60008,2470.45,2020-12-15T10:24:21Z
2020-12-15T08:26:25Z,42.805,6.029,13.2988,4.60005,2470.437,2020-12-15T10:27:24Z
2020-12-15T08:29:28Z,42.805,6.029,13.2979,4.60007,2470.437,2020-12-15T10:30:27Z
2020-12-15T08:32:31Z,42.805,6.029,13.2986,4.60008,2470.45,2020-12-15T10:33:30Z
2020-12-15T08:35:35Z,42.805,6.029,13.2984,4.60004,2470.45,2020-12-15T10:36:33Z
2020-12-15T08:38:38Z,42.805,6.029,13.2982,4.60007,2470.45,2020-12-15T10:39:37Z
2020-12-15T08:41:41Z,42.805,6.029,13.2990,4.60014,2470.474,2020-12-15T10:42:40Z
2020-12-15T08:44:44Z,42.805,6.029,13.2983,4.60014,2470.413,2020-12-15T10:45:43Z
2020-12-15T08:47:47Z,42.805,6.029,13.2985,4.60008,2470.437,2020-12-15T10:48:46Z
2020-12-15T08:50:50Z,42.805,6.029,13.2981,4.60011,2470.46,2020-12-15T10:51:49Z
2020-12-15T08:53:53Z,42.805,6.029,13.2986,4.60015,2470.45,2020-12-15T10:54:52Z
2020-12-15T08:56:56Z,42.805,6.029,13.2989,4.60025,2470.45,2020-12-15T10:57:55Z
2020-12-15T09:00:00Z,42.805,6.029,13.2994,4.60027,2470.474,2020-12-15T11:00:59Z
2020-12-15T09:03:03Z,42.805,6.029,13.2991,4.60034,2470.437,2020-12-15T11:04:02Z
2020-12-15T09:06:06Z,42.805,6.029,13.2990,4.60025,2470.45,2020-12-15T11:07:05Z
2020-12-15T09:09:09Z,42.805,6.029,13.2994,4.60016,2470.413,2020-12-15T11:10:08Z
2020-12-15T09:12:12Z,42.805,6.029,13.2993,4.60014,2470.427,2020-12-15T11:13:11Z
2020-12-15T09:15:15Z,42.805,6.029,13.2986,4.60007,2470.427,2020-12-15T11:16:14Z
2020-12-15T09:18:18Z,42.805,6.029,13.2986,4.60031,2470.413,2020-12-15T11:19:17Z
2020-12-15T09:21:21Z,42.805,6.029,13.2990,4.60001,2470.427,2020-12-15T11:22:20Z
2020-12-15T09:24:25Z,42.805,6.029,13.2996,4.60022,2470.413,2020-12-15T11:25:24Z
2020-12-15T09:27:28Z,42.805,6.029,13.2983,4.60029,2470.45,2020-12-15T11:28:27Z
2020-12-15T09:30:31Z,42.805,6.029,13.2997,4.60017,2470.39,2020-12-15T11:31:30Z
2020-12-15T09:33:34Z,42.805,6.029,13.2985,4.60023,2470.39,2020-12-15T11:34:33Z
2020-12-15T09:36:37Z,42.805,6.029,13.3000,4.60023,2470.413,2020-12-15T11:37:36Z
2020-12-15T09:39:40Z,42.805,6.029,13.2990,4.60038,2470.39,2020-12-15T11:40:39Z
2020-12-15T09:42:43Z,42.805,6.029,13.2986,4.60028,2470.46,2020-12-15T11:43:42Z
2020-12-15T09:45:47Z,42.805,6.029,13.2982,4.59997,2470.45,2020-12-15T11:46:45Z
2020-12-15T09:48:50Z,42.805,6.029,13.2991,4.60009,2470.437,2020-12-15T11:49:49Z
2020-12-15T09:51:53Z,42.805,6.029,13.2994,4.60008,2470.413,2020-12-15T11:52:52Z
2020-12-15T09:54:56Z,42.805,6.029,13.2983,4.60015,2470.39,2020-12-15T11:55:55Z
2020-12-15T09:57:59Z,42.805,6.029,13.2984,4.60005,2470.413,2020-12-15T11:58:58Z
2020-12-15T10:01:02Z,42.805,6.029,13.2989,4.60003,2470.413,2020-12-15T12:02:01Z
2020-12-15T10:04:05Z,42.805,6.029,13.2991,4.60023,2470.413,2020-12-15T12:05:04Z
2020-12-15T10:07:08Z,42.805,6.029,13.2988,4.60008,2470.39,2020-12-15T12:08:07Z
2020-12-15T10:10:12Z,42.805,6.029,13.2989,4.60016,2470.427,2020-12-15T12:11:10Z
2020-12-15T10:13:15Z,42.805,6.029,13.2982,4.60003,2470.404,2020-12-15T12:14:14Z
2020-12-15T10:16:18Z,42.805,6.029,13.2989,4.60016,2470.39,2020-12-15T12:17:17Z
2020-12-15T10:19:21Z,42.805,6.029,13.2996,4.60020,2470.404,2020-12-15T12:20:20Z
2020-12-15T10:22:24Z,42.805,6.029,13.2985,4.60003,2470.404,2020-12-15T12:23:23Z
2020-12-15T10:25:27Z,42.805,6.029,13.2991,4.60024,2470.404,2020-12-15T12:26:26Z
2020-12-15T10:28:30Z,42.805,6.029,13.2993,4.60021,2470.38,2020-12-15T12:29:29Z
2020-12-15T10:31:33Z,42.805,6.029,13.2989,4.60014,2470.39,2020-12-15T12:32:32Z
2020-12-15T10:34:37Z,42.805,6.029,13.2983,4.60002,2470.404,2020-12-15T12:35:35Z
2020-12-15T10:37:40Z,42.805,6.029,13.2992,4.60010,2470.38,2020-12-15T12:38:39Z
2020-12-15T10:40:43Z,42.805,6.029,13.2984,4.59999,2470.404,2020-12-15T12:41:42Z
2020-12-15T10:43:46Z,42.805,6.029,13.2992,4.60017,2470.38,2020-12-15T12:44:45Z
2020-12-15T10:46:49Z,42.805,6.029,13.2988,4.60009,2470.357,2020-12-15T12:47:48Z
2020-12-15T10:49:52Z,42.805,6.029,13.2990,4.60021,2470.357,2020-12-15T12:50:51Z
2020-12-15T10:52:55Z,42.805,6.029,13.2986,4.60022,2470.38,2020-12-15T12:53:54Z
2020-12-15T10:55:58Z,42.805,6.029,13.3000,4.60010,2470.343,2020-12-15T12:56:57Z
2020-12-15T10:59:02Z,42.805,6.029,13.2986,4.60012,2470.38,2020-12-15T13:00:01Z
2020-12-15T11:02:05Z,42.805,6.029,13.2983,4.60017,2470.297,2020-12-15T13:03:04Z
2020-12-15T11:05:08Z,42.805,6.029,13.2986,4.60009,2470.39,2020-12-15T13:06:07Z
2020-12-15T11:08:11Z,42.805,6.029,13.2987,4.60010,2470.343,2020-12-15T13:09:10Z
2020-12-15T11:11:14Z,42.805,6.029,13.2985,4.60031,2470.38,2020-12-15T13:12:13Z
2020-12-15T11:14:17Z,42.805,6.029,13.2984,4.60013,2470.357,2020-12-15T13:15:16Z
2020-12-15T11:17:20Z,42.805,6.029,13.2997,4.60020,2470.366,2020-12-15T13:18:19Z
2020-12-15T11:20:23Z,42.805,6.029,13.3000,4.60037,2470.38,2020-12-15T13:21:22Z
2020-12-15T11:23:27Z,42.805,6.029,13.2988,4.60003,2470.343,2020-12-15T13:24:26Z
2020-12-15T11:26:30Z,42.805,6.029,13.2980,4.60005,2470.32,2020-12-15T13:27:29Z
2020-12-15T11:29:33Z,42.805,6.029,13.2981,4.59996,2470.38,2020-12-15T13:30:32Z
2020-12-15T11:32:36Z,42.805,6.029,13.2986,4.60002,2470.343,2020-12-15T13:33:35Z
2020-12-15T11:35:39Z,42.805,6.029,13.2987,4.60005,2470.343,2020-12-15T13:36:38Z
2020-12-15T11:38:42Z,42.805,6.029,13.2983,4.59996,2470.343,2020-12-15T13:39:41Z
2020-12-15T11:41:45Z,42.805,6.029,13.2985,4.59997,2470.31,2020-12-15T13:42:44Z
2020-12-15T11:44:49Z,42.805,6.029,13.2986,4.59999,2470.343,2020-12-15T13:45:47Z
2020-12-15T11:47:52Z,42.805,6.029,13.2984,4.59999,2470.297,2020-12-15T13:48:51Z
2020-12-15T11:50:55Z,42.805,6.029,13.2990,4.60005,2470.334,2020-12-15T13:51:54Z
2020-12-15T11:53:58Z,42.805,6.029,13.2986,4.60000,2470.334,2020-12-15T13:54:57Z
2020-12-15T11:57:01Z,42.805,6.029,13.2987,4.60000,2470.334,2020-12-15T13:58:00Z
2020-12-15T12:00:04Z,42.805,6.029,13.2990,4.60008,2470.32,2020-12-15T14:01:03Z
2020-12-15T12:03:07Z,42.805,6.029,13.2990,4.60003,2470.334,2020-12-15T14:04:06Z
2020-12-15T12:06:10Z,42.805,6.029,13.2986,4.59997,2470.32,2020-12-15T14:07:09Z
2020-12-15T12:09:13Z,42.805,6.029,13.2991,4.60025,2470.334,2020-12-15T14:10:12Z
2020-12-15T12:12:17Z,42.805,6.029,13.2991,4.60029,2470.32,2020-12-15T14:13:16Z
2020-12-15T12:15:20Z,42.805,6.029,13.2991,4.60009,2470.334,2020-12-15T14:16:19Z
2020-12-15T12:18:23Z,42.805,6.029,13.2984,4.60003,2470.297,2020-12-15T14:19:22Z
2020-12-15T12:21:26Z,42.805,6.029,13.2984,4.60004,2470.32,2020-12-15T14:22:25Z
2020-12-15T12:24:29Z,42.805,6.029,13.2985,4.60016,2470.297,2020-12-15T14:25:28Z
2020-12-15T12:27:32Z,42.805,6.029,13.2983,4.60014,2470.273,2020-12-15T14:28:31Z
2020-12-15T12:30:35Z,42.805,6.029,13.2985,4.60000,2470.297,2020-12-15T14:31:34Z
2020-12-15T12:33:39Z,42.805,6.029,13.2981,4.60002,2470.32,2020-12-15T14:34:37Z
2020-12-15T12:36:42Z,42.805,6.029,13.2993,4.60001,2470.297,2020-12-15T14:37:41Z
2020-12-15T12:39:45Z,42.805,6.029,13.2983,4.60002,2470.297,2020-12-15T14:40:44Z
2020-12-15T12:42:48Z,42.805,6.029,13.2983,4.59998,2470.31,2020-12-15T14:43:47Z
2020-12-15T12:45:51Z,42.805,6.029,13.2992,4.59998,2470.273,2020-12-15T14:46:50Z
2020-12-15T12:48:54Z,42.805,6.029,13.3001,4.60024,2470.273,2020-12-15T14:49:53Z
2020-12-15T12:51:57Z,42.805,6.029,13.2986,4.60026,2470.287,2020-12-15T14:52:56Z
2020-12-15T12:55:00Z,42.805,6.029,13.2984,4.59998,2470.24,2020-12-15T14:55:59Z
2020-12-15T12:58:04Z,42.805,6.029,13.2985,4.60006,2470.273,2020-12-15T14:59:02Z
2020-12-15T13:01:07Z,42.805,6.029,13.2986,4.60014,2470.297,2020-12-15T15:02:06Z
2020-12-15T13:04:10Z,42.805,6.029,13.2983,4.60003,2470.287,2020-12-15T15:05:09Z
2020-12-15T13:07:13Z,42.805,6.029,13.2993,4.60011,2470.273,2020-12-15T15:08:12Z
2020-12-15T13:10:16Z,42.805,6.029,13.2988,4.60013,2470.26,2020-12-15T15:11:15Z
2020-12-15T13:13:19Z,42.805,6.029,13.2986,4.60002,2470.273,2020-12-15T15:14:18Z
2020-12-15T13:16:22Z,42.805,6.029,13.2990,4.60018,2470.273,2020-12-15T15:17:21Z
2020-12-15T13:19:25Z,42.805,6.029,13.2988,4.60029,2470.264,2020-12-15T15:20:24Z
2020-12-15T13:22:29Z,42.805,6.029,13.2983,4.59999,2470.297,2020-12-15T15:23:27Z
2020-12-15T13:25:32Z,42.805,6.029,13.2986,4.59996,2470.25,2020-12-15T15:26:31Z
2020-12-15T13:28:35Z,42.805,6.029,13.2983,4.59997,2470.273,2020-12-15T15:29:34Z
2020-12-15T13:31:38Z,42.805,6.029,13.2987,4.60008,2470.25,2020-12-15T15:32:37Z
2020-12-15T13:34:41Z,42.805,6.029,13.2982,4.60000,2470.25,2020-12-15T15:35:40Z
2020-12-15T13:37:44Z,42.805,6.029,13.2982,4.60009,2470.227,2020-12-15T15:38:43Z
2020-12-15T13:40:47Z,42.805,6.029,13.2985,4.59997,2470.227,2020-12-15T15:41:46Z
2020-12-15T13:43:50Z,42.805,6.029,13.2986,4.60014,2470.227,2020-12-15T15:44:49Z
2020-12-15T13:46:54Z,42.805,6.029,13.2979,4.59996,2470.24,2020-12-15T15:47:53Z
2020-12-15T13:49:57Z,42.805,6.029,13.2984,4.59993,2470.24,2020-12-15T15:50:56Z
2020-12-15T13:53:00Z,42.805,6.029,13.2987,4.59996,2470.227,2020-12-15T15:53:59Z
2020-12-15T13:56:03Z,42.805,6.029,13.2984,4.59997,2470.25,2020-12-15T15:57:02Z
2020-12-15T13:59:06Z,42.805,6.029,13.2996,4.60003,2470.203,2020-12-15T16:00:05Z
2020-12-15T14:02:09Z,42.805,6.029,13.2979,4.59996,2470.273,2020-12-15T16:03:08Z
2020-12-15T14:05:12Z,42.805,6.029,13.2984,4.60010,2470.203,2020-12-15T16:06:11Z
2020-12-15T14:08:15Z,42.805,6.029,13.2980,4.60005,2470.24,2020-12-15T16:09:14Z
2020-12-15T14:11:19Z,42.805,6.029,13.2981,4.60026,2470.227,2020-12-15T16:12:18Z
2020-12-15T14:14:22Z,42.805,6.029,13.2988,4.60007,2470.24,2020-12-15T16:15:21Z
2020-12-15T14:17:25Z,42.805,6.029,13.2987,4.60009,2470.227,2020-12-15T16:18:24Z
2020-12-15T14:20:28Z,42.805,6.029,13.2983,4.60007,2470.25,2020-12-15T16:21:27Z
2020-12-15T14:23:31Z,42.805,6.029,13.2986,4.60001,2470.227,2020-12-15T16:24:30Z
2020-12-15T14:26:34Z,42.805,6.029,13.2987,4.60003,2470.287,2020-12-15T16:27:33Z
2020-12-15T14:29:37Z,42.805,6.029,13.2982,4.60006,2470.24,2020-12-15T16:30:36Z
2020-12-15T14:32:40Z,42.805,6.029,13.2986,4.59997,2470.227,2020-12-15T16:33:39Z
2020-12-15T14:35:44Z,42.805,6.029,13.2985,4.60001,2470.217,2020-12-15T16:36:43Z
2020-12-15T14:38:47Z,42.805,6.029,13.2986,4.60019,2470.203,2020-12-15T16:39:46Z
2020-12-15T14:41:50Z,42.805,6.029,13.2984,4.59999,2470.25,2020-12-15T16:42:49Z
2020-12-15T14:44:53Z,42.805,6.029,13.2981,4.60023,2470.227,2020-12-15T16:45:52Z
2020-12-15T14:47:56Z,42.805,6.029,13.3000,4.60007,2470.227,2020-12-15T16:48:55Z
2020-12-15T14:50:59Z,42.805,6.029,13.2992,4.60016,2470.203,2020-12-15T16:51:58Z
2020-12-15T14:54:02Z,42.805,6.029,13.2988,4.60005,2470.24,2020-12-15T16:55:01Z
2020-12-15T14:57:05Z,42.805,6.029,13.2996,4.60012,2470.24,2020-12-15T16:58:04Z
2020-12-15T15:00:09Z,42.805,6.029,13.2985,4.60007,2470.227,2020-12-15T17:01:08Z
2020-12-15T15:03:12Z,42.805,6.029,13.2990,4.60005,2470.194,2020-12-15T17:04:11Z
2020-12-15T15:06:15Z,42.805,6.029,13.2986,4.60021,2470.203,2020-12-15T17:07:14Z